Theta_e
308 306 306 306 305 303 305 309 301 312 312 301 303 297 296 295 296 299 298 297 296 294 294 293 293 291 294 298 298 293 296 293 288 290 296 297 296 293 293 287 286 289 288 287
307 306 306 306 305 303 306 300 304 311 309 296 295 297 295 296 295 296 296 295 296 297 294 290 292 293 297 298 297 294 297 291 285 286 292 295 292 293 294 293 292 288 285 289
307 305 306 305 305 304 305 300 296 300 303 300 294 292 292 292 298 296 297 296 297 295 293 296 291 292 295 297 297 297 297 293 289 284 287 292 289 291 293 291 287 289 289 292
306 305 305 305 304 304 305 299 296 296 292 295 294 294 293 291 290 295 297 294 293 292 289 291 291 293 294 295 297 297 296 289 291 292 292 292 291 290 291 289 290 287 291 292
306 304 304 305 304 303 303 297 294 298 294 294 293 291 292 290 291 291 290 291 293 294 291 291 289 292 292 291 295 295 298 289 291 288 291 291 290 292 293 293 294 293 294 293
306 304 304 304 304 303 300 302 302 298 293 291 291 292 290 290 291 292 294 294 292 291 292 295 296 297 297 296 292 291 292 291 287 284 289 290 287 292 293 295 296 295 291 296
306 304 303 304 303 302 301 300 300 295 290 291 289 289 290 290 290 290 293 294 292 296 300 300 300 298 297 297 295 295 291 290 288 284 287 280 292 297 296 294 296 298 298 299
306 304 303 303 303 303 301 302 298 296 289 290 290 290 290 291 292 292 292 294 297 300 297 292 291 292 291 291 292 293 293 290 285 284 285 289 292 295 295 293 293 298 298 299
306 304 303 303 302 302 302 300 302 298 291 291 291 289 290 290 291 292 292 297 301 300 295 292 285 285 288 287 289 295 292 292 288 287 281 279 291 296 299 298 287 299 299 298
306 305 303 302 302 302 301 301 303 298 292 294 293 290 290 293 293 292 294 295 296 300 292 290 288 286 291 286 286 287 285 286 283 284 283 288 297 298 299 285 290 300 300 298
306 305 303 302 302 301 301 299 302 297 293 294 294 294 293 295 295 292 295 294 295 295 289 289 291 287 291 290 292 289 288 286 285 286 283 282 299 298 289 297 300 300 300 300
306 305 303 302 301 301 301 297 302 301 293 294 299 299 300 299 298 295 298 295 294 296 291 292 293 290 291 290 285 295 288 293 289 290 291 299 300 299 302 302 300 300 300 300
306 305 303 302 302 302 301 299 300 297 293 295 296 296 300 302 301 303 294 300 298 299 300 295 293 286 291 288 289 290 293 296 290 290 295 296 299 302 303 303 301 301 301 299
306 305 303 302 302 302 302 298 300 298 294 289 296 300 299 304 304 302 300 300 303 302 300 296 291 290 295 291 292 290 293 293 290 292 296 297 298 300 302 300 300 300 301 299
306 305 303 302 302 302 302 301 301 302 294 291 295 301 303 304 304 301 302 298 295 293 293 294 291 295 295 297 294 291 292 289 286 286 290 291 294 301 300 299 298 299 296 296
307 305 302 302 301 301 299 294 302 303 299 291 290 300 300 302 303 302 300 298 294 294 293 294 296 300 293 289 288 294 296 291 291 291 296 300 300 298 300 298 296 297 296 296
306 304 301 301 301 301 295 294 300 302 301 292 289 295 300 302 302 303 301 301 296 295 295 294 295 295 294 290 287 292 291 291 293 297 301 297 297 297 299 297 297 298 297 296
305 302 299 299 301 301 296 301 300 302 296 295 287 293 295 301 299 298 304 297 296 296 295 296 293 295 296 289 291 291 289 290 295 298 302 301 301 299 298 297 297 295 294 295
300 298 299 301 299 294 299 304 302 301 296 290 289 291 291 300 297 298 299 302 291 301 294 294 295 293 288 289 289 288 288 289 291 298 303 301 299 298 297 296 296 294 294 294
298 298 294 292 297 303 305 300 294 293 295 295 289 298 292 295 294 294 295 298 294 291 293 295 291 288 291 292 291 290 290 291 296 296 296 300 299 298 298 296 296 295 294 294
293 291 292 296 300 300 297 292 290 291 288 292 293 295 291 298 291 292 296 291 295 289 288 289 288 287 290 292 290 291 292 294 297 298 300 302 302 299 297 297 296 295 295 294
292 294 297 298 295 293 288 288 291 290 288 293 293 295 297 298 299 291 295 291 293 286 293 291 285 289 292 292 290 291 292 294 295 298 299 303 301 300 298 299 296 295 295 295
297 294 292 291 291 285 284 283 287 289 294 296 294 292 296 296 296 292 292 287 289 295 290 287 288 291 292 292 292 291 293 294 295 297 299 303 301 301 299 299 298 296 295 295
291 288 284 286 286 289 292 293 293 294 294 293 293 293 293 296 292 292 287 291 293 285 285 280 290 291 289 290 292 292 291 292 293 295 298 301 302 301 300 300 299 296 294 295
290 291 284 287 293 297 296 294 293 294 295 294 292 294 295 291 287 291 290 285 281 285 285 287 289 288 289 289 291 291 292 292 292 294 296 299 302 301 299 300 300 299 295 295
291 291 288 292 293 291 291 292 292 296 296 295 295 291 289 284 289 282 281 282 281 283 287 287 289 288 289 289 290 292 292 293 292 293 295 297 301 302 301 301 300 298 297 294
289 289 293 293 294 291 292 293 294 298 294 289 292 285 282 290 284 281 285 284 285 287 287 290 289 289 290 290 290 291 292 293 292 291 292 295 298 302 301 299 299 299 299 297
Wind_Speed
20 22 23 25 26 31 9 4 4 5 5 5 2 5 3 4 9 8 10 7 11 13 11 12 12 9 6 2 7 8 1 6 11 14 13 5 12 13 12 10 10 9 11 15
19 20 22 24 25 21 8 5 3 3 5 3 4 3 8 5 8 5 5 7 3 4 10 7 6 7 4 3 6 5 2 7 9 10 10 6 11 16 16 15 12 15 12 11
16 18 21 23 24 22 5 6 3 3 3 3 5 7 4 4 2 10 7 9 6 9 11 9 8 6 2 1 3 5 5 12 14 12 12 2 7 10 10 12 11 15 20 27
16 18 19 21 24 24 5 4 4 4 5 2 8 4 4 8 5 2 6 5 4 7 8 10 12 9 9 7 9 11 11 17 17 18 18 17 18 19 19 19 22 23 21 28
14 14 16 19 23 28 2 6 5 3 5 5 7 1 1 7 5 5 6 10 8 7 12 13 17 15 14 12 9 10 7 6 8 12 15 17 19 21 22 23 23 24 25 27
12 13 14 16 19 18 3 2 1 5 2 3 5 2 3 5 8 7 8 8 10 13 12 11 14 12 10 10 9 5 4 5 5 9 6 10 14 19 14 18 20 16 19 19
10 11 11 12 13 12 4 4 5 4 4 4 6 6 8 9 8 13 11 10 11 4 11 16 17 17 17 16 16 13 10 7 2 8 11 11 1 1 10 15 16 17 19 20
7 10 9 9 9 8 3 3 5 3 5 6 4 5 8 8 7 10 9 8 6 10 12 8 7 6 5 4 4 11 14 10 5 6 7 15 17 6 8 12 17 19 19 14
7 7 8 7 7 6 4 2 4 4 5 2 3 8 6 7 6 4 3 3 5 6 7 3 3 2 3 2 5 5 6 11 5 4 5 7 5 4 4 11 17 3 16 21
8 7 6 6 6 4 4 1 4 4 4 2 3 4 6 3 4 5 2 5 3 5 3 1 3 3 2 3 1 6 4 3 8 9 7 10 8 6 8 10 9 22 23 22
7 7 6 6 4 4 4 2 3 5 4 5 5 4 6 4 4 4 6 6 5 5 2 2 1 1 3 4 3 1 4 3 5 5 5 6 5 15 6 13 23 24 25 25
8 8 7 7 4 3 2 3 3 3 4 5 6 11 13 13 10 6 2 5 3 4 4 5 5 2 4 4 3 3 4 2 5 5 6 17 16 15 17 17 22 24 25 25
9 8 7 7 7 5 5 3 2 3 4 6 5 5 6 8 12 9 5 2 4 2 6 4 2 4 1 3 3 5 5 7 3 7 5 11 18 21 18 20 24 26 26 27
11 9 7 9 8 7 6 4 1 3 3 4 3 3 5 3 7 12 13 8 5 6 4 2 3 3 2 3 6 7 4 5 5 10 16 17 16 21 23 24 26 27 26 27
12 11 8 8 7 5 6 4 5 6 4 5 4 9 3 6 7 8 11 10 7 5 4 3 3 3 3 4 4 1 3 4 4 6 19 16 18 20 25 25 28 29 24 21
14 11 7 6 5 5 3 3 4 6 5 3 4 4 5 6 6 8 9 7 6 4 3 3 3 5 2 3 3 5 16 15 14 7 15 23 17 20 23 24 25 21 20 21
13 10 7 4 5 5 4 4 3 5 4 2 4 4 5 1 2 4 4 7 4 4 3 3 2 1 2 1 2 19 18 17 19 19 15 15 17 20 24 20 23 21 18 17
11 9 4 4 5 6 5 7 10 7 2 3 3 4 4 1 1 2 4 4 3 5 3 3 2 4 4 2 18 18 17 20 16 19 20 17 18 20 23 18 20 20 17 18
12 6 7 4 5 4 1 10 13 2 2 2 3 3 1 1 2 3 5 5 4 6 4 3 2 1 5 8 13 15 16 13 19 22 18 17 19 22 22 19 20 20 18 16
10 3 3 4 4 6 15 5 5 3 4 4 4 2 3 3 3 2 3 3 4 2 1 4 2 3 1 6 10 11 14 15 17 18 19 23 20 21 24 21 17 17 17 18
2 3 3 2 2 4 4 4 4 4 4 5 4 4 5 3 4 4 4 2 1 3 2 2 2 2 10 14 13 12 13 15 17 17 18 19 19 19 19 22 18 20 19 18
4 2 2 2 3 3 5 5 4 6 4 6 4 2 2 2 1 3 4 3 1 2 2 2 3 4 12 15 16 17 17 18 18 18 19 21 18 17 19 19 16 19 18 17
3 3 4 3 5 7 6 8 5 5 5 5 6 5 2 4 3 4 3 4 1 3 2 3 3 7 12 14 14 16 16 19 19 20 19 21 17 18 18 17 15 17 17 17
4 6 6 7 7 7 6 5 4 5 5 6 4 3 2 1 4 3 3 2 2 3 2 3 6 12 12 13 14 14 17 18 19 19 18 19 16 15 17 16 15 14 17 18
4 4 5 8 5 2 4 5 6 5 4 4 4 3 3 2 1 1 3 2 3 2 1 3 6 10 11 13 15 15 14 14 15 16 15 18 16 14 16 16 15 15 14 17
3 5 5 4 6 6 6 5 6 4 4 2 2 2 3 2 1 2 2 3 1 2 2 5 7 9 10 11 13 14 14 14 14 13 15 15 17 15 14 14 16 16 16 16
5 5 6 6 5 8 5 5 5 3 4 4 2 4 3 4 2 3 2 1 2 2 3 3 6 9 10 11 12 12 13 14 13 15 14 14 15 14 14 16 16 15 16 14
Wind_Direction
345 341 345 349 349 343 305 305 260 38 313 241 237 270 347 6 277 259 269 275 273 282 289 283 277 271 269 50 285 258 256 297 271 269 277 262 285 273 229 236 225 233 279 277
346 343 344 350 348 358 313 338 317 83 295 304 320 323 279 267 283 274 287 278 262 311 287 290 267 292 50 293 255 338 358 236 266 235 185 216 239 233 240 255 263 256 258 247
347 345 345 349 346 346 296 299 305 126 59 29 325 338 291 272 263 284 295 286 275 277 267 254 276 266 182 271 286 18 320 265 264 276 314 233 244 256 250 251 248 250 250 275
346 348 347 347 348 341 292 348 54 19 318 33 331 306 307 300 303 277 283 219 284 302 290 281 266 263 272 236 251 265 248 261 268 267 274 278 275 271 265 245 241 249 266 273
343 347 350 352 349 333 320 331 334 175 293 291 288 88 310 312 319 282 278 280 314 293 282 291 295 298 295 288 267 254 233 264 284 287 265 257 262 262 260 255 255 258 268 273
339 344 352 1 0 336 356 43 146 281 113 257 288 10 349 319 312 275 269 291 302 292 298 309 297 289 276 264 272 274 326 267 330 283 297 299 267 259 262 257 248 254 271 292
331 337 349 3 14 1 329 6 288 282 294 279 322 298 299 295 293 280 296 300 282 328 309 296 259 249 250 247 244 239 252 277 264 282 296 254 356 286 313 291 284 285 288 302
316 325 339 354 8 0 346 345 299 309 284 311 270 296 304 298 272 259 282 285 298 313 295 272 232 178 162 187 253 250 230 236 260 255 255 287 287 35 353 340 297 302 293 322
290 308 321 335 349 12 301 341 311 289 301 73 344 304 315 314 319 248 209 274 296 271 272 301 274 306 348 137 140 88 210 225 245 241 291 277 340 86 348 318 278 99 329 320
274 291 299 312 333 5 323 350 286 281 279 277 273 298 324 313 288 284 275 358 259 246 273 273 320 16 332 289 48 167 151 198 232 254 259 271 30 18 320 276 336 326 313 302
254 273 282 284 312 331 296 7 252 310 284 289 241 234 253 233 234 294 30 249 188 269 291 308 250 296 302 293 305 217 236 227 221 222 245 263 22 332 293 308 301 300 297 297
241 255 268 269 271 273 243 274 180 255 250 296 294 273 270 259 274 309 259 346 302 356 318 4 323 316 318 339 293 167 278 251 298 299 298 316 314 298 306 296 297 302 303 304
233 237 247 267 260 256 235 271 281 257 269 258 229 209 193 221 231 231 276 129 2 1 4 348 311 274 177 287 296 315 336 8 249 314 262 302 304 301 306 311 307 310 310 309
230 222 223 253 260 259 250 234 258 255 323 283 122 161 237 163 196 207 228 287 303 294 288 235 285 267 260 294 301 296 346 334 294 266 296 316 291 312 314 321 317 314 327 322
222 215 212 246 264 268 263 251 231 235 285 320 304 300 196 183 200 220 223 224 246 277 272 244 240 252 286 278 298 304 1 347 308 289 297 286 287 315 336 318 335 323 313 308
223 207 191 243 264 258 251 232 192 202 205 263 275 24 208 192 230 232 221 211 211 239 240 271 296 324 191 275 270 53 358 335 310 282 291 282 329 326 331 334 328 316 314 310
230 180 184 222 254 241 240 344 28 164 162 242 277 236 149 260 240 158 194 167 196 233 252 245 258 275 218 287 328 344 343 317 309 295 293 332 333 345 337 347 321 315 306 314
202 151 165 235 253 259 257 225 172 171 209 237 273 271 208 355 261 224 167 170 199 205 241 212 235 158 201 221 355 336 323 325 311 322 315 334 336 336 339 352 330 325 328 324
124 133 225 230 193 214 223 125 151 178 278 276 234 274 6 253 240 254 209 176 206 174 219 146 305 132 50 323 323 322 324 315 295 312 332 331 334 339 338 349 337 332 326 326
122 221 199 213 183 148 130 157 161 196 207 227 250 290 286 311 333 254 265 184 240 226 141 126 186 90 2 359 328 315 311 308 321 334 332 336 338 339 344 344 340 334 337 338
101 187 239 68 112 201 206 202 219 181 216 204 230 272 307 110 298 349 3 287 213 261 89 229 106 82 358 351 332 327 327 337 336 333 328 330 331 342 342 342 349 343 339 335
143 248 283 190 203 209 225 209 175 217 229 163 204 179 225 118 354 248 212 285 302 314 258 196 116 26 353 349 345 340 340 341 340 339 340 328 347 351 349 350 352 340 339 342
188 212 181 216 169 216 218 192 197 198 174 166 183 176 172 152 198 258 271 256 16 281 257 75 63 356 356 347 342 339 339 345 346 346 344 333 351 359 358 354 359 345 345 349
192 179 188 222 185 227 206 221 141 97 140 159 193 142 188 96 208 316 259 68 242 253 170 84 32 355 346 342 337 340 342 342 343 344 343 335 356 356 3 6 4 358 353 350
207 204 213 214 245 242 154 109 122 123 126 161 158 148 211 121 186 252 262 219 195 333 78 6 341 337 339 344 338 337 341 342 341 342 341 339 349 358 6 10 7 14 3 1
239 230 249 229 208 151 166 156 126 141 135 159 226 147 163 142 179 246 158 250 223 121 354 327 329 335 342 342 334 339 339 341 341 343 341 346 340 350 1 8 12 11 14 13
227 227 234 258 215 171 155 163 121 151 203 204 168 192 155 124 139 193 220 192 111 358 300 342 342 335 340 338 334 342 342 342 351 344 343 347 342 343 358 7 5 17 10 23